Domov               UVHVVR             MKGP            O straneh              
ZDRAVSTVENO VARSTVO RASTLIN
  MREŽA AGROMET. POSTAJ
 ► PROGNOSTIČNA OBVESTILA
AGROMETEOROLOŠKI PODATKI -
ARSO
OBVLADOVANJE TVEGANJ ZARADI
NEUGODNIH VREMENSKIH RAZMER
  ► NARAVNE NESREČE
  ► SUŠA/MOČA
  ► NAMAKANJE
  ► ŽLED (gozdarstvo)
KARTOGRAFSKI PRIKAZI
SPLETNE POVEZAVE
PROJEKTI IN PUBLIKACIJE

AGROMETEOROLOŠKA MREŽA: VREMENSKE POSTAJE IN FENOLOŠKA OPAZOVANJA

Pregled podatkov za lokacijo Godemarci, meteorološka postaja 37828

Pregled senzorjev na lokaciji

ID Ime Zadnja
vrednost
Datum
zadnje
spremembe
Tip
senzorja
3799 Omočenost lista (U) 3 U 24.6.2017 22:00 A730WET
3800 Temperatura 2 m ( °C) 23,03 °C 24.6.2017 22:00 50YA
3801 Relativna vlaga 2 m (% RH) 82,95 % RH 24.6.2017 22:00 50YA
3802 Padavine 0.2 mm (mm) 0 mm 24.6.2017 22:00 Rain-O-Matic

Pregled podatkov zadnjih 24 ur

Zap.
št.
Datum in čas Godemarci
Omočenost
lista
Padavine
0.2
mm
Relativna
vlaga
2
m
Temperatura
2
m
0 24.6.2017 21:00 3 0 82,95 23,03
1 24.6.2017 20:30 0 0 71,45 25,13
2 24.6.2017 20:00 0 0 64,52 26,15
3 24.6.2017 19:30 0 0 65,86 26,5
4 24.6.2017 19:00 0 0 58,41 27,91
5 24.6.2017 18:30 0 0 54,33 28,69
6 24.6.2017 18:00 0 0 53,94 28,52
7 24.6.2017 17:30 0 0 52,77 28,82
8 24.6.2017 17:00 0 0 50,65 29,35
9 24.6.2017 16:30 0 0 48,21 30,33
10 24.6.2017 16:00 0 0 45,67 31,4
11 24.6.2017 15:30 0 0 42,03 32,16
12 24.6.2017 15:00 0 0 43,22 31,79
13 24.6.2017 14:30 0 0 44,62 31,67
14 24.6.2017 14:00 0 0 45,27 31,53
15 24.6.2017 13:30 0 0 47,23 30,72
16 24.6.2017 13:00 0 0 46,08 30,33
17 24.6.2017 12:30 0 0 45,74 29,84
18 24.6.2017 12:00 0 0 42,78 29,74
19 24.6.2017 11:30 0 0 44,62 29,4
20 24.6.2017 11:00 0 0 48,18 28,96
21 24.6.2017 10:30 0 0 47,94 29,23
22 24.6.2017 10:00 0 0 49,94 28,4
23 24.6.2017 09:30 0 0 53,38 27,35
24 24.6.2017 09:00 0 0 55,97 25,79
25 24.6.2017 08:30 0 0 62,08 23,96
26 24.6.2017 08:00 0 0 67,13 23,08
27 24.6.2017 07:30 0 0 74,6 21,76
28 24.6.2017 07:00 5 0 93,11 19,93
29 24.6.2017 06:30 8 0 99,93 18,75
30 24.6.2017 06:00 9 0 99,93 17,61
31 24.6.2017 05:30 9 0 99,93 16,39
32 24.6.2017 05:00 9 0 99,93 15,24
33 24.6.2017 04:30 9 0 99,93 14,77
34 24.6.2017 04:00 9 0 99,93 14,99
35 24.6.2017 03:30 9 0 99,93 15,09
36 24.6.2017 03:00 9 0 99,93 15,58
37 24.6.2017 02:30 9 0 99,93 16
38 24.6.2017 02:00 9 0 99,93 15,78
39 24.6.2017 01:30 9 0 99,93 16,12
40 24.6.2017 01:00 9 0 99,93 16,02
41 24.6.2017 00:30 9 0 99,93 16,02
42 24.6.2017 00:00 9 0 99,93 16,07
43 23.6.2017 23:30 9 0 99,93 16,26
44 23.6.2017 23:00 10 0 99,93 16,24
© 2011 Ministrstvo za kmetijstvo, gozdarstvo in prehrano. Vse pravice pridržane.